Вернуться в каталог

CZ-6A DEB

АктивенSSO
NORAD 55234·DEBRIS·🇨🇳 China

Запущен Nov 11, 2022 с Taiyuan Satellite Launch Center

Loading…

Ближайшие Пролёты (ближайшие 24 часа)

TLE

СвежийSource: Space-Track

Эпоха: Sep 14, 2026, 07:53 UTC

1 55234U 22151XB  26257.32862521  .00000714  00000-0  51366-3 0  9997
2 55234  98.8696 221.3123 0110090 170.2516 190.0818 13.97150826195446

Отслеживайте CZ-6A DEB в реальном времени с AllMySat

Download on the App Store